When you browse on this site, cookies collect data to enhance your experience and personalize the content and advertising you see.
Visit our Privacy Policy to learn more. By continuing to use the site, you agree to this use of cookies and data.
  • In Austria
  • List of Countries
  • For 7 days
  • Water Temperature
  • Weather Map
  • News
  • Weather Widgets
  • user-avatar
    Login

    Hourly Weather Amfreville-la-Mi-Voie

    Today, 14 October, Monday

    Time Temperature Precipitation Wind Pressure Humidity
    00:00 +14°C° 0 mm 1 mps 748 mmHg 93%
    01:00 +13°C° 0 mm 2 mps 747 mmHg 93%
    02:00 +13°C° 0 mm 2 mps 747 mmHg 93%
    03:00 +12°C° 0 mm 3 mps 746 mmHg 93%
    04:00 +13°C° 0.2 mm 4 mps 745 mmHg 94%
    05:00 +13°C° 0.2 mm 5 mps 745 mmHg 94%
    06:00 +14°C° 0.2 mm 5 mps 745 mmHg 94%
    07:00 +15°C° 0.1 mm 5 mps 744 mmHg 89%
    08:00 +16°C° 0.1 mm 6 mps 744 mmHg 84%
    09:00 +17°C° 0.1 mm 6 mps 743 mmHg 80%
    10:00 +19°C° 0 mm 6 mps 743 mmHg 74%
    11:00 +20°C° 0 mm 5 mps 742 mmHg 69%
    12:00 +22°C° 0 mm 5 mps 742 mmHg 64%
    13:00 +22°C° 0.1 mm 5 mps 742 mmHg 64%
    14:00 +21°C° 0.1 mm 5 mps 741 mmHg 65%
    15:00 +21°C° 0.1 mm 5 mps 740 mmHg 65%
    16:00 +20°C° 2.9 mm 5 mps 741 mmHg 72%
    17:00 +19°C° 2.9 mm 6 mps 741 mmHg 80%
    18:00 +16°C° 2.9 mm 6 mps 742 mmHg 87%
    19:00 +15°C° 0.1 mm 5 mps 742 mmHg 88%
    20:00 +14°C° 0.1 mm 5 mps 742 mmHg 89%
    21:00 +13°C° 0.1 mm 5 mps 742 mmHg 89%
    22:00 +13°C° 0 mm 4 mps 742 mmHg 90%
    23:00 +12°C° 0 mm 4 mps 743 mmHg 91%

    Tomorrow, 15 October, Tuesday

    Time Temperature Precipitation Wind Pressure Humidity
    00:00 +12°C° 0 mm 3 mps 743 mmHg 92%
    01:00 +12°C° 0 mm 3 mps 743 mmHg 92%
    02:00 +12°C° 0 mm 3 mps 742 mmHg 92%
    03:00 +12°C° 0 mm 3 mps 742 mmHg 92%
    04:00 +11°C° 0 mm 3 mps 742 mmHg 92%
    05:00 +11°C° 0 mm 3 mps 742 mmHg 92%
    06:00 +10°C° 0 mm 3 mps 742 mmHg 92%
    07:00 +11°C° 0 mm 4 mps 742 mmHg 88%
    08:00 +12°C° 0 mm 4 mps 743 mmHg 85%
    09:00 +12°C° 0 mm 4 mps 743 mmHg 81%
    10:00 +13°C° 0 mm 5 mps 743 mmHg 76%
    11:00 +14°C° 0 mm 5 mps 743 mmHg 70%
    12:00 +15°C° 0 mm 6 mps 743 mmHg 65%
    13:00 +15°C° 0 mm 6 mps 743 mmHg 63%
    14:00 +15°C° 0 mm 5 mps 743 mmHg 62%
    15:00 +15°C° 0 mm 5 mps 743 mmHg 60%
    16:00 +14°C° 0.2 mm 6 mps 743 mmHg 69%
    17:00 +13°C° 0.2 mm 6 mps 744 mmHg 77%
    18:00 +10°C° 0.2 mm 6 mps 744 mmHg 85%
    19:00 +11°C° 0.1 mm 6 mps 744 mmHg 84%
    20:00 +11°C° 0.1 mm 6 mps 745 mmHg 84%
    21:00 +11°C° 0.1 mm 6 mps 745 mmHg 83%
    22:00 +10°C° 0 mm 6 mps 745 mmHg 85%
    23:00 +9°C° 0 mm 5 mps 745 mmHg 87%

    Day after tomorrow, 16 October, Wednesday

    Time Temperature Precipitation Wind Pressure Humidity
    00:00 +8°C° 0 mm 4 mps 745 mmHg 88%
    01:00 +9°C° 0 mm 5 mps 745 mmHg 88%
    02:00 +9°C° 0 mm 5 mps 745 mmHg 88%
    03:00 +10°C° 0 mm 5 mps 745 mmHg 88%
    04:00 +10°C° 0.7 mm 6 mps 744 mmHg 90%
    05:00 +11°C° 0.7 mm 6 mps 744 mmHg 91%
    06:00 +11°C° 0.7 mm 7 mps 744 mmHg 92%
    07:00 +11°C° 0.8 mm 8 mps 743 mmHg 91%
    08:00 +12°C° 0.8 mm 8 mps 743 mmHg 89%
    09:00 +12°C° 0.8 mm 9 mps 743 mmHg 87%
    10:00 +12°C° 0.6 mm 9 mps 743 mmHg 87%
    11:00 +11°C° 0.6 mm 9 mps 743 mmHg 86%
    12:00 +11°C° 0.6 mm 9 mps 744 mmHg 85%
    13:00 +11°C° 0.5 mm 8 mps 744 mmHg 87%
    14:00 +12°C° 0.5 mm 7 mps 744 mmHg 88%
    15:00 +12°C° 0.5 mm 7 mps 744 mmHg 90%
    16:00 +13°C° 0.5 mm 5 mps 744 mmHg 91%
    17:00 +12°C° 0.5 mm 4 mps 744 mmHg 92%
    18:00 +12°C° 0.5 mm 3 mps 744 mmHg 94%
    19:00 +12°C° 1.7 mm 3 mps 744 mmHg 94%
    20:00 +12°C° 1.7 mm 3 mps 745 mmHg 94%
    21:00 +12°C° 1.7 mm 3 mps 745 mmHg 93%
    22:00 +11°C° 0.1 mm 3 mps 745 mmHg 93%
    23:00 +12°C° 0.1 mm 2 mps 745 mmHg 93%

    17 October, Thursday

    Time Temperature Precipitation Wind Pressure Humidity
    00:00 +10°C° 0.1 mm 2 mps 746 mmHg 93%
    01:00 +10°C° 0 mm 2 mps 746 mmHg 91%
    02:00 +10°C° 0 mm 2 mps 746 mmHg 90%
    03:00 +10°C° 0 mm 2 mps 746 mmHg 88%
    04:00 +10°C° 0 mm 3 mps 746 mmHg 86%
    05:00 +10°C° 0 mm 3 mps 747 mmHg 84%
    06:00 +10°C° 0 mm 3 mps 747 mmHg 82%
    07:00 +10°C° 0 mm 3 mps 747 mmHg 78%
    08:00 +11°C° 0 mm 4 mps 747 mmHg 74%
    09:00 +12°C° 0 mm 4 mps 748 mmHg 71%
    10:00 +13°C° 0 mm 5 mps 748 mmHg 70%
    11:00 +13°C° 0 mm 5 mps 748 mmHg 69%
    12:00 +14°C° 0 mm 6 mps 748 mmHg 68%
    13:00 +13°C° 0 mm 5 mps 748 mmHg 69%
    14:00 +13°C° 0 mm 5 mps 748 mmHg 70%
    15:00 +12°C° 0 mm 4 mps 748 mmHg 72%
    16:00 +11°C° 0 mm 3 mps 748 mmHg 77%
    17:00 +11°C° 0 mm 3 mps 748 mmHg 83%
    18:00 +10°C° 0 mm 2 mps 748 mmHg 89%
    19:00 +9°C° 0 mm 2 mps 748 mmHg 89%
    20:00 +9°C° 0 mm 3 mps 748 mmHg 90%
    21:00 +9°C° 0 mm 3 mps 748 mmHg 90%
    22:00 +9°C° 0 mm 3 mps 748 mmHg 90%
    23:00 +8°C° 0 mm 3 mps 748 mmHg 90%

    18 October, Friday

    Time Temperature Precipitation Wind Pressure Humidity
    00:00 +8°C° 0 mm 3 mps 748 mmHg 90%
    01:00 +8°C° 0 mm 3 mps 748 mmHg 91%
    02:00 +8°C° 0 mm 3 mps 748 mmHg 92%
    03:00 +8°C° 0 mm 3 mps 748 mmHg 92%
    04:00 +8°C° 0 mm 3 mps 748 mmHg 93%
    05:00 +8°C° 0 mm 3 mps 748 mmHg 93%
    06:00 +7°C° 0 mm 4 mps 748 mmHg 94%
    07:00 +8°C° 0 mm 4 mps 748 mmHg 89%
    08:00 +10°C° 0 mm 5 mps 748 mmHg 83%
    09:00 +11°C° 0 mm 6 mps 748 mmHg 78%
    10:00 +13°C° 0 mm 6 mps 748 mmHg 73%
    11:00 +14°C° 0 mm 6 mps 748 mmHg 69%
    12:00 +15°C° 0 mm 7 mps 748 mmHg 64%
    13:00 +15°C° 0 mm 6 mps 747 mmHg 64%
    14:00 +15°C° 0 mm 6 mps 747 mmHg 64%
    15:00 +15°C° 0 mm 5 mps 746 mmHg 64%
    16:00 +14°C° 0.2 mm 5 mps 746 mmHg 70%
    17:00 +13°C° 0.2 mm 5 mps 746 mmHg 75%
    18:00 +12°C° 0.2 mm 4 mps 745 mmHg 81%
    19:00 +11°C° 0.3 mm 4 mps 745 mmHg 83%
    20:00 +11°C° 0.3 mm 4 mps 745 mmHg 84%
    21:00 +10°C° 0.3 mm 5 mps 745 mmHg 86%
    22:00 +10°C° 0 mm 5 mps 745 mmHg 88%
    23:00 +9°C° 0 mm 5 mps 745 mmHg 89%

    19 October, Saturday

    Time Temperature Precipitation Wind Pressure Humidity
    00:00 +9°C° 0 mm 5 mps 744 mmHg 91%
    01:00 +9°C° 0 mm 5 mps 744 mmHg 90%
    02:00 +9°C° 0 mm 5 mps 744 mmHg 90%
    03:00 +10°C° 0 mm 4 mps 744 mmHg 90%
    04:00 +9°C° 0.1 mm 5 mps 744 mmHg 90%
    05:00 +9°C° 0.1 mm 5 mps 744 mmHg 90%
    06:00 +9°C° 0.1 mm 5 mps 744 mmHg 90%
    07:00 +10°C° 0 mm 5 mps 744 mmHg 87%
    08:00 +10°C° 0 mm 6 mps 744 mmHg 84%
    09:00 +11°C° 0 mm 6 mps 744 mmHg 81%
    10:00 +12°C° 0.2 mm 7 mps 744 mmHg 78%
    11:00 +12°C° 0.2 mm 7 mps 744 mmHg 74%
    12:00 +14°C° 0.2 mm 7 mps 744 mmHg 70%
    13:00 +14°C° 0.4 mm 6 mps 744 mmHg 71%
    14:00 +14°C° 0.4 mm 6 mps 743 mmHg 72%
    15:00 +14°C° 0.4 mm 6 mps 743 mmHg 73%
    16:00 +13°C° 0.5 mm 5 mps 743 mmHg 77%
    17:00 +12°C° 0.5 mm 4 mps 743 mmHg 81%
    18:00 +11°C° 0.5 mm 4 mps 743 mmHg 85%
    19:00 +10°C° 0.1 mm 4 mps 743 mmHg 87%
    20:00 +10°C° 0.1 mm 4 mps 743 mmHg 88%
    21:00 +8°C° 0.1 mm 4 mps 743 mmHg 90%
    22:00 +8°C° 0 mm 4 mps 743 mmHg 91%
    23:00 +7°C° 0 mm 4 mps 743 mmHg 91%
    Show more